Simultaneous Nadir Overpasses (SNOs) Predictions

Prediction of SNOs between GOES-14 and NPP Satellite Orbit:

Table of predicted SNOs for the next 14.0 days since TLE Epoch: 12/21/2024
Index Date Time (GOES-14) GOES-14 Lat,Lon NPP Lat,Lon Distance(km) Time Diff (sec)
1 12/21/2024 08:30:49 0.11,-108.42 -0.22,-106.82 181.53 80
2 12/22/2024 20:55:28 -0.14,-108.35 -0.97,-112.13 430.59 80
3 12/23/2024 20:34:05 -0.12,-108.35 0.02,-107.60 84.22 80
4 12/26/2024 08:37:12 0.14,-108.39 0.13,-108.35 3.65 80
5 12/28/2024 20:43:06 -0.17,-108.30 -0.37,-109.13 94.47 80
6 12/29/2024 20:21:44 -0.15,-108.29 0.69,-104.61 419.90 80
7 12/31/2024 08:46:13 0.19,-108.33 0.50,-109.88 175.82 80
8 01/01/2025 08:24:50 0.17,-108.32 -0.50,-105.35 338.25 80
9 01/02/2025 20:49:27 -0.20,-108.24 -0.76,-110.65 274.85 80
10 01/03/2025 20:28:05 -0.18,-108.23 0.30,-106.13 239.42 80
